• în România
  • Lista ţărilor
  • Pe 7 zile
  • Temperatura apei
  • Hartă satelitară
  • Meteo pe hartă
  • Widget-uri
  • user-avatar
    Intrare

    Meteo pe oră la Canillo

    Astăzi, 30 Martie, Joi

    Timp Temperatura Precipitaţii Vânt Presiune Umiditate
    00:00 -1°C° 0 mm 0 m/s 621 mmHg 88%
    01:00 0°C° 0 mm 1 m/s 620 mmHg 88%
    02:00 0°C° 0 mm 1 m/s 620 mmHg 87%
    03:00 0°C° 0 mm 1 m/s 620 mmHg 86%
    04:00 +1°C° 0 mm 1 m/s 620 mmHg 86%
    05:00 +1°C° 0 mm 1 m/s 620 mmHg 86%
    06:00 +1°C° 0 mm 1 m/s 620 mmHg 87%
    07:00 +4°C° 0 mm 1 m/s 622 mmHg 78%
    08:00 +6°C° 0 mm 2 m/s 623 mmHg 69%
    09:00 +10°C° 0 mm 2 m/s 625 mmHg 60%
    10:00 +12°C° 0 mm 2 m/s 625 mmHg 55%
    11:00 +13°C° 0 mm 2 m/s 625 mmHg 50%
    12:00 +13°C° 0 mm 3 m/s 625 mmHg 46%
    13:00 +12°C° 0 mm 3 m/s 625 mmHg 45%
    14:00 +12°C° 0 mm 3 m/s 625 mmHg 45%
    15:00 +12°C° 0 mm 3 m/s 624 mmHg 45%
    16:00 +10°C° 0 mm 3 m/s 623 mmHg 55%
    17:00 +8°C° 0 mm 2 m/s 622 mmHg 65%
    18:00 +5°C° 0 mm 2 m/s 621 mmHg 74%
    19:00 +4°C° 0 mm 2 m/s 621 mmHg 77%
    20:00 +3°C° 0 mm 2 m/s 620 mmHg 79%
    21:00 +1°C° 0 mm 2 m/s 620 mmHg 81%
    22:00 +1°C° 0 mm 2 m/s 620 mmHg 79%
    23:00 +1°C° 0 mm 2 m/s 620 mmHg 77%

    Mâine, 31 Martie, Vineri

    Timp Temperatura Precipitaţii Vânt Presiune Umiditate
    00:00 +1°C° 0 mm 2 m/s 620 mmHg 76%
    01:00 +1°C° 0 mm 2 m/s 619 mmHg 74%
    02:00 +1°C° 0 mm 2 m/s 619 mmHg 72%
    03:00 +1°C° 0 mm 2 m/s 618 mmHg 71%
    04:00 +1°C° 0 mm 2 m/s 619 mmHg 69%
    05:00 +2°C° 0 mm 1 m/s 619 mmHg 68%
    06:00 +2°C° 0 mm 1 m/s 619 mmHg 67%
    07:00 +4°C° 0 mm 1 m/s 619 mmHg 62%
    08:00 +6°C° 0 mm 1 m/s 620 mmHg 57%
    09:00 +8°C° 0 mm 1 m/s 621 mmHg 51%
    10:00 +7°C° 0 mm 2 m/s 621 mmHg 51%
    11:00 +8°C° 0 mm 2 m/s 621 mmHg 51%
    12:00 +9°C° 0 mm 3 m/s 621 mmHg 51%
    13:00 +9°C° 0,1 mm 3 m/s 621 mmHg 52%
    14:00 +9°C° 0,1 mm 3 m/s 620 mmHg 53%
    15:00 +9°C° 0,1 mm 3 m/s 620 mmHg 54%
    16:00 +8°C° 0,3 mm 3 m/s 619 mmHg 64%
    17:00 +5°C° 0,3 mm 3 m/s 618 mmHg 73%
    18:00 +4°C° 0,3 mm 2 m/s 617 mmHg 83%
    19:00 +4°C° 0,4 mm 2 m/s 616 mmHg 86%
    20:00 +3°C° 0,4 mm 2 m/s 616 mmHg 90%
    21:00 +2°C° 0,4 mm 2 m/s 616 mmHg 93%
    22:00 +2°C° 1,1 mm 2 m/s 616 mmHg 94%
    23:00 +2°C° 1,1 mm 1 m/s 615 mmHg 95%

    Poimâine, 1 Aprilie, Sâmbătă

    Timp Temperatura Precipitaţii Vânt Presiune Umiditate
    00:00 +2°C° 1,1 mm 1 m/s 615 mmHg 97%
    01:00 +1°C° 1,3 mm 2 m/s 615 mmHg 96%
    02:00 -1°C° 1,3 mm 2 m/s 615 mmHg 96%
    03:00 -1°C° 1,3 mm 2 m/s 614 mmHg 95%
    04:00 -2°C° 0,3 mm 3 m/s 614 mmHg 94%
    05:00 -2°C° 0,3 mm 3 m/s 614 mmHg 92%
    06:00 -2°C° 0,3 mm 3 m/s 614 mmHg 91%
    07:00 -1°C° 0,1 mm 3 m/s 615 mmHg 85%
    08:00 0°C° 0,1 mm 3 m/s 616 mmHg 79%
    09:00 +2°C° 0,1 mm 3 m/s 617 mmHg 73%
    10:00 +1°C° 0,2 mm 4 m/s 617 mmHg 69%
    11:00 +3°C° 0,2 mm 4 m/s 617 mmHg 66%
    12:00 +4°C° 0,2 mm 4 m/s 618 mmHg 63%
    13:00 +4°C° 0,3 mm 4 m/s 617 mmHg 64%
    14:00 +3°C° 0,3 mm 4 m/s 617 mmHg 65%
    15:00 +3°C° 0,3 mm 4 m/s 617 mmHg 66%
    16:00 +1°C° 0,2 mm 4 m/s 617 mmHg 71%
    17:00 +1°C° 0,2 mm 3 m/s 617 mmHg 76%
    18:00 0°C° 0,2 mm 3 m/s 616 mmHg 82%
    19:00 -1°C° 0 mm 3 m/s 616 mmHg 82%
    20:00 -2°C° 0 mm 3 m/s 616 mmHg 82%
    21:00 -4°C° 0 mm 3 m/s 616 mmHg 82%
    22:00 -4°C° 0 mm 3 m/s 616 mmHg 83%
    23:00 -4°C° 0 mm 3 m/s 616 mmHg 83%

    2 Aprilie, Duminică

    Timp Temperatura Precipitaţii Vânt Presiune Umiditate
    00:00 -4°C° 0 mm 3 m/s 616 mmHg 84%
    01:00 -4°C° 0 mm 3 m/s 616 mmHg 83%
    02:00 -4°C° 0 mm 3 m/s 616 mmHg 83%
    03:00 -4°C° 0 mm 3 m/s 616 mmHg 82%
    04:00 -4°C° 0 mm 3 m/s 617 mmHg 82%
    05:00 -4°C° 0 mm 3 m/s 617 mmHg 82%
    06:00 -2°C° 0 mm 3 m/s 617 mmHg 82%
    07:00 -1°C° 0 mm 3 m/s 618 mmHg 76%
    08:00 +1°C° 0 mm 3 m/s 619 mmHg 70%
    09:00 +2°C° 0 mm 3 m/s 620 mmHg 64%
    10:00 +3°C° 0 mm 3 m/s 621 mmHg 61%
    11:00 +4°C° 0 mm 3 m/s 621 mmHg 58%
    12:00 +5°C° 0 mm 3 m/s 621 mmHg 55%
    13:00 +5°C° 0 mm 3 m/s 621 mmHg 56%
    14:00 +5°C° 0 mm 3 m/s 621 mmHg 58%
    15:00 +5°C° 0 mm 3 m/s 621 mmHg 59%
    16:00 +4°C° 0 mm 3 m/s 621 mmHg 67%
    17:00 +4°C° 0 mm 2 m/s 620 mmHg 74%
    18:00 +2°C° 0 mm 2 m/s 620 mmHg 81%
    19:00 +2°C° 0 mm 2 m/s 620 mmHg 83%
    20:00 +1°C° 0 mm 2 m/s 621 mmHg 84%
    21:00 -1°C° 0 mm 2 m/s 621 mmHg 86%
    22:00 -1°C° 0 mm 2 m/s 621 mmHg 86%
    23:00 -1°C° 0 mm 2 m/s 621 mmHg 86%

    3 Aprilie, Luni

    Timp Temperatura Precipitaţii Vânt Presiune Umiditate
    00:00 -2°C° 0 mm 2 m/s 621 mmHg 86%
    01:00 -2°C° 0 mm 2 m/s 621 mmHg 86%
    02:00 -2°C° 0 mm 2 m/s 620 mmHg 87%
    03:00 -2°C° 0 mm 2 m/s 620 mmHg 87%
    04:00 -2°C° 0 mm 2 m/s 620 mmHg 87%
    05:00 -2°C° 0 mm 2 m/s 621 mmHg 86%
    06:00 -2°C° 0 mm 2 m/s 621 mmHg 86%
    07:00 +2°C° 0 mm 2 m/s 622 mmHg 77%
    08:00 +4°C° 0 mm 2 m/s 623 mmHg 68%
    09:00 +7°C° 0 mm 2 m/s 624 mmHg 58%
    10:00 +8°C° 0 mm 2 m/s 625 mmHg 56%
    11:00 +9°C° 0 mm 2 m/s 625 mmHg 53%
    12:00 +10°C° 0 mm 2 m/s 625 mmHg 50%
    13:00 +10°C° 0 mm 2 m/s 625 mmHg 52%
    14:00 +10°C° 0 mm 2 m/s 625 mmHg 54%
    15:00 +10°C° 0 mm 2 m/s 625 mmHg 56%
    16:00 +8°C° 0 mm 2 m/s 624 mmHg 65%
    17:00 +6°C° 0 mm 2 m/s 623 mmHg 74%
    18:00 +5°C° 0 mm 2 m/s 623 mmHg 83%
    19:00 +4°C° 0 mm 2 m/s 622 mmHg 85%
    20:00 +2°C° 0 mm 2 m/s 622 mmHg 86%
    21:00 +1°C° 0 mm 2 m/s 622 mmHg 88%
    22:00 +1°C° 0 mm 2 m/s 622 mmHg 86%
    23:00 +1°C° 0 mm 2 m/s 622 mmHg 84%

    4 Aprilie, Marţi

    Timp Temperatura Precipitaţii Vânt Presiune Umiditate
    00:00 +1°C° 0 mm 2 m/s 622 mmHg 82%
    01:00 +1°C° 0 mm 2 m/s 622 mmHg 84%
    02:00 +1°C° 0 mm 2 m/s 622 mmHg 85%
    03:00 +1°C° 0 mm 2 m/s 622 mmHg 86%
    04:00 +1°C° 0 mm 2 m/s 622 mmHg 86%
    05:00 +1°C° 0 mm 2 m/s 622 mmHg 86%
    06:00 +1°C° 0 mm 2 m/s 622 mmHg 86%
    07:00 +3°C° 0 mm 2 m/s 623 mmHg 77%
    08:00 +6°C° 0 mm 2 m/s 624 mmHg 68%
    09:00 +8°C° 0 mm 2 m/s 625 mmHg 58%
    10:00 +9°C° 0 mm 2 m/s 625 mmHg 54%
    11:00 +10°C° 0 mm 3 m/s 625 mmHg 50%
    12:00 +11°C° 0 mm 3 m/s 625 mmHg 45%
    13:00 +11°C° 0 mm 3 m/s 625 mmHg 46%
    14:00 +11°C° 0 mm 3 m/s 625 mmHg 48%
    15:00 +11°C° 0 mm 3 m/s 625 mmHg 49%
    16:00 +9°C° 0 mm 2 m/s 624 mmHg 59%
    17:00 +8°C° 0 mm 2 m/s 623 mmHg 69%
    18:00 +6°C° 0 mm 2 m/s 623 mmHg 79%
    19:00 +5°C° 0 mm 2 m/s 622 mmHg 82%
    20:00 +4°C° 0 mm 2 m/s 622 mmHg 84%
    21:00 +2°C° 0 mm 2 m/s 622 mmHg 86%
    22:00 +2°C° 0 mm 2 m/s 622 mmHg 83%
    23:00 +1°C° 0 mm 2 m/s 621 mmHg 80%
    Arată mai mult